Date String (YYYY-MM-DD hh:mm:ss) UTC,Instrument flags,absolute air pressure of the measurement (hPa),sample flow rate (lpm),inlet stack bypass flow (lpm),air temperature of the measurement (°C),ambient temperature measured by the external sensor (°C),aerosol sample conditioner tube jacket temperature (°C),OPC LED temperature (°C),internal box temperature (°C),relative humidity of the measurement (%),span deviation,mass concentration of particles derived from Lorenz-Mie calculation of OPC scattering (μg/m³),mass concentration of particles derived from Lorenz-Mie calculation of OPC scattering (μg/m³),mass concentration of particles derived from Lorenz-Mie calculation of OPC scattering (μg/m³)
DateTimeUTC,F1_M11,P_M11,Q1_M11,Q2_M11,T1_M11,T2_M11,T3_M11,T4_M11,T5_M11,U1_M11,ZSPAN_M11,X2_M11,X0_M11,X1_M11
2024-01-29 06:00:00,SystemResetWarning,0837.0,5.01,000.00,024.8,023.5,000.0,033.2,026.2,12.8,0000.0,0001.17,0003.51,0000.88
2024-01-29 06:01:00,SystemResetWarning,0837.0,5.01,000.00,024.8,023.5,000.0,033.2,026.2,12.8,0000.0,0001.14,0003.44,0000.88
2024-01-29 06:02:00,SystemResetWarning,0837.0,5.00,000.00,024.8,023.5,000.0,033.2,026.2,12.8,0000.0,0001.15,0003.58,0000.90
2024-01-29 06:03:00,SystemResetWarning,0836.9,5.00,000.00,024.8,023.5,000.0,033.2,026.2,12.8,0000.0,0001.13,0004.08,0000.90
2024-01-29 06:04:00,SystemResetWarning,0836.9,5.00,000.00,024.8,023.5,000.0,033.2,026.2,12.8,0000.0,0001.11,0005.03,0000.91
2024-01-29 06:05:00,SystemResetWarning,0837.0,5.00,000.00,024.8,023.5,000.0,033.2,026.2,12.9,0000.0,0001.12,0004.92,0000.92
2024-01-29 06:06:00,SystemResetWarning,0837.0,4.99,000.00,024.8,023.5,000.0,033.2,026.2,12.9,0000.0,0001.12,0004.87,0000.92
2024-01-29 06:07:00,SystemResetWarning,0837.0,5.00,000.00,024.8,023.5,000.0,033.1,026.2,12.9,0000.0,0001.14,0004.89,0000.94
2024-01-29 06:08:00,SystemResetWarning,0837.0,5.00,000.00,024.8,023.5,000.0,033.1,026.2,12.9,0000.0,0001.15,0004.87,0000.96
2024-01-29 06:09:00,SystemResetWarning,0836.9,4.99,000.00,024.8,023.5,000.0,033.1,026.2,12.9,0000.0,0001.16,0003.51,0000.97
2024-01-29 06:10:00,SystemResetWarning,0836.9,5.00,000.00,024.8,023.4,000.0,033.1,026.1,12.9,0000.0,0001.15,0003.44,0000.97
2024-01-29 06:11:00,SystemResetWarning,0836.9,5.01,000.00,024.8,023.5,000.0,033.1,026.1,12.9,0000.0,0001.16,0003.43,0000.99
2024-01-29 06:12:00,SystemResetWarning,0837.0,5.00,000.00,024.7,023.5,000.0,033.1,026.1,12.9,0000.0,0001.15,0003.39,0000.99
2024-01-29 06:13:00,SystemResetWarning,0837.0,5.00,000.00,024.7,023.4,000.0,033.1,026.2,12.9,0000.0,0001.17,0003.39,0001.00
2024-01-29 06:14:00,SystemResetWarning,0837.0,4.99,000.00,024.7,023.5,000.0,033.1,026.1,12.9,0000.0,0001.19,0003.07,0001.01
2024-01-29 06:15:00,SystemResetWarning,0837.0,4.99,000.00,024.7,023.5,000.0,033.1,026.1,12.9,0000.0,0001.19,0001.76,0001.01
2024-01-29 06:16:00,SystemResetWarning,0837.0,5.00,000.00,024.7,023.5,000.0,033.1,026.1,12.9,0000.0,0001.17,0001.74,0000.99
2024-01-29 06:17:00,SystemResetWarning,0837.0,5.01,000.00,024.7,023.4,000.0,033.1,026.1,12.9,0000.0,0001.18,0001.78,0000.99
2024-01-29 06:18:00,SystemResetWarning,0837.0,5.01,000.00,024.7,023.5,000.0,033.1,026.1,12.9,0000.0,0001.18,0001.93,0000.98
2024-01-29 06:19:00,SystemResetWarning,0837.1,4.99,000.00,024.7,023.4,000.0,033.1,026.1,13.0,0000.0,0001.16,0001.82,0000.97
2024-01-29 06:20:00,SystemResetWarning,0837.1,4.99,000.00,024.7,023.4,000.0,033.1,026.0,13.0,0000.0,0001.13,0001.68,0000.96
2024-01-29 06:21:00,SystemResetWarning,0837.1,5.00,000.00,024.7,023.4,000.0,033.0,026.1,13.0,0000.0,0001.13,0001.66,0000.95
2024-01-29 06:22:00,SystemResetWarning,0837.0,5.01,000.00,024.7,023.4,000.0,033.0,026.1,12.9,0000.0,0001.12,0001.68,0000.94
2024-01-29 06:23:00,SystemResetWarning,0837.0,5.00,000.00,024.7,023.4,000.0,033.0,026.0,12.9,0000.0,0001.14,0001.97,0000.93
2024-01-29 06:24:00,SystemResetWarning,0837.0,5.00,000.00,024.7,023.4,000.0,033.0,026.0,12.9,0000.0,0001.13,0001.99,0000.91
2024-01-29 06:25:00,SystemResetWarning,0837.1,5.00,000.00,024.7,023.4,000.0,033.0,026.0,13.0,0000.0,0001.13,0002.24,0000.89
2024-01-29 06:26:00,SystemResetWarning,0837.1,5.00,000.00,024.7,023.4,000.0,033.0,026.0,13.0,0000.0,0001.12,0002.25,0000.88
2024-01-29 06:27:00,SystemResetWarning,0837.1,5.00,000.00,024.7,023.4,000.0,033.0,026.0,13.0,0000.0,0001.11,0002.27,0000.86
2024-01-29 06:28:00,SystemResetWarning,0837.1,5.00,000.00,024.6,023.4,000.0,033.0,026.0,13.0,0000.0,0001.11,0002.23,0000.85
2024-01-29 06:29:00,SystemResetWarning,0837.1,5.00,000.00,024.6,023.4,000.0,033.0,026.0,13.0,0000.0,0001.10,0002.20,0000.82
2024-01-29 06:30:00,SystemResetWarning,0837.1,4.99,000.00,024.6,023.4,000.0,033.0,026.0,13.0,0000.0,0001.07,0002.06,0000.80
2024-01-29 06:31:00,SystemResetWarning,0837.0,5.00,000.00,024.6,023.4,000.0,033.0,026.0,13.0,0000.0,0001.06,0002.13,0000.78
2024-01-29 06:32:00,SystemResetWarning,0837.0,5.00,000.00,024.6,023.4,000.0,033.0,026.0,13.0,0000.0,0001.06,0002.18,0000.77
2024-01-29 06:33:00,SystemResetWarning,0837.0,4.99,000.00,024.6,023.4,000.0,033.0,026.0,13.0,0000.0,0001.04,0002.14,0000.76
2024-01-29 06:34:00,SystemResetWarning,0837.0,5.00,000.00,024.6,023.4,000.0,033.0,026.0,13.0,0000.0,0001.01,0001.85,0000.76
2024-01-29 06:35:00,SystemResetWarning,0837.0,5.00,000.00,024.6,023.4,000.0,032.9,026.1,13.0,0000.0,0000.97,0001.74,0000.75
2024-01-29 06:36:00,SystemResetWarning,0837.0,4.99,000.00,024.6,023.5,000.0,033.0,026.1,13.0,0000.0,0000.94,0001.49,0000.75
2024-01-29 06:37:00,SystemResetWarning,0837.0,4.99,000.00,024.6,023.5,000.0,033.0,026.1,13.0,0000.0,0000.93,0001.41,0000.75
2024-01-29 06:38:00,SystemResetWarning,0837.0,5.01,000.00,024.6,023.5,000.0,032.9,026.1,13.0,0000.0,0000.91,0001.43,0000.73
2024-01-29 06:39:00,SystemResetWarning,0837.0,5.01,000.00,024.6,023.5,000.0,032.9,026.1,13.0,0000.0,0000.86,0002.16,0000.72
2024-01-29 06:40:00,SystemResetWarning,0837.0,5.00,000.00,024.6,023.5,000.0,032.9,026.1,12.9,0000.0,0000.83,0003.28,0000.72
2024-01-29 06:41:00,SystemResetWarning,0837.0,5.00,000.00,024.6,023.5,000.0,032.9,026.0,13.0,0000.0,0000.82,0003.25,0000.72
2024-01-29 06:42:00,SystemResetWarning,0837.0,5.00,000.00,024.6,023.5,000.0,032.9,026.0,13.0,0000.0,0000.82,0003.20,0000.72
2024-01-29 06:43:00,SystemResetWarning,0837.0,5.00,000.00,024.6,023.5,000.0,032.9,026.0,13.0,0000.0,0000.81,0003.17,0000.71
2024-01-29 06:44:00,SystemResetWarning,0837.0,4.99,000.00,024.6,023.5,000.0,032.9,026.0,13.0,0000.0,0000.80,0003.17,0000.70
2024-01-29 06:45:00,SystemResetWarning,0837.1,5.00,000.00,024.6,023.5,000.0,032.9,026.1,13.0,0000.0,0000.81,0003.19,0000.69
2024-01-29 06:46:00,SystemResetWarning,0837.1,5.00,000.00,024.6,023.5,000.0,032.9,026.1,12.9,0000.0,0000.82,0003.22,0000.69
2024-01-29 06:47:00,SystemResetWarning,0837.1,5.00,000.00,024.6,023.6,000.0,033.0,026.1,13.1,0000.0,0000.83,0003.25,0000.68
2024-01-29 06:48:00,SystemResetWarning,0837.1,5.00,000.00,024.6,023.6,000.0,033.0,026.1,13.1,0000.0,0000.83,0004.50,0000.66
2024-01-29 06:49:00,SystemResetWarning,0837.1,5.00,000.00,024.6,023.6,000.0,033.0,026.1,13.0,0000.0,0000.85,0005.24,0000.66
2024-01-29 06:50:00,SystemResetWarning,0837.1,5.00,000.00,024.6,023.6,000.0,033.0,026.1,13.0,0000.0,0000.85,0005.12,0000.66
2024-01-29 06:51:00,SystemResetWarning,0837.1,5.00,000.00,024.6,023.6,000.0,033.0,026.1,13.0,0000.0,0000.89,0004.13,0000.67
2024-01-29 06:52:00,SystemResetWarning,0837.1,5.01,000.00,024.6,023.6,000.0,032.9,026.1,13.0,0000.0,0000.91,0003.95,0000.68
2024-01-29 06:53:00,SystemResetWarning,0837.1,5.00,000.00,024.6,023.6,000.0,032.9,026.1,13.0,0000.0,0000.92,0003.99,0000.68
2024-01-29 06:54:00,SystemResetWarning,0837.1,5.00,000.00,024.6,023.6,000.0,032.9,026.1,13.0,0000.0,0000.92,0003.97,0000.69
2024-01-29 06:55:00,SystemResetWarning,0837.0,4.99,000.00,024.6,023.6,000.0,032.9,026.0,12.9,0000.0,0000.91,0003.94,0000.68
2024-01-29 06:56:00,SystemResetWarning,0837.0,5.00,000.00,024.6,023.6,000.0,032.9,026.0,12.9,0000.0,0000.87,0003.88,0000.67
2024-01-29 06:57:00,SystemResetWarning,0837.1,4.99,000.00,024.6,023.6,000.0,032.9,026.1,12.9,0000.0,0000.86,0003.88,0000.65
2024-01-29 06:58:00,SystemResetWarning,0837.0,5.00,000.00,024.6,023.6,000.0,032.9,026.0,12.9,0000.0,0000.84,0003.89,0000.64
2024-01-29 06:59:00,SystemResetWarning,0837.1,5.00,000.00,024.6,023.6,000.0,032.9,026.0,12.9,0000.0,0000.83,0002.46,0000.65
